Time,TemperatureF,DewpointF,PressureIn,WindDirection,WindDirectionDegrees,WindSpeedMPH,WindSpeedGustMPH,Humidity,HourlyPrecipIn,Conditions,Clouds,dailyrainin,SoftwareType,DateUTC
2013-06-16 00:00:00,67.5,63.5,30.03,WSW,258,22.0,22.0,87,0.09,,,0.00,Wunderground v.1.15,2013-06-16 05:00:00,
2013-06-16 00:10:00,67.2,63.2,30.03,WSW,244,17.0,17.0,87,0.14,,,0.02,Wunderground v.1.15,2013-06-16 05:10:00,
2013-06-16 00:15:00,67.2,63.2,30.03,WSW,252,16.0,19.0,87,0.13,,,0.03,Wunderground v.1.15,2013-06-16 05:15:00,
2013-06-16 00:25:00,67.4,63.4,30.02,WSW,254,13.0,14.0,87,0.04,,,0.03,Wunderground v.1.15,2013-06-16 05:25:00,
2013-06-16 00:35:00,67.5,63.5,30.02,WSW,238,11.0,13.0,87,0.00,,,0.03,Wunderground v.1.15,2013-06-16 05:35:00,
2013-06-16 00:40:00,67.6,63.6,30.02,WSW,241,11.0,11.0,87,0.00,,,0.03,Wunderground v.1.15,2013-06-16 05:40:00,
2013-06-16 00:50:00,67.6,63.6,30.01,WSW,246,10.0,11.0,87,0.00,,,0.03,Wunderground v.1.15,2013-06-16 05:50:00,
2013-06-16 00:55:00,67.5,63.5,30.00,SW,234,10.0,11.0,87,0.00,,,0.03,Wunderground v.1.15,2013-06-16 05:55:00,
2013-06-16 01:05:00,67.4,63.4,29.99,SW,225,6.0,7.0,87,0.00,,,0.03,Wunderground v.1.15,2013-06-16 06:05:00,
2013-06-16 01:15:00,67.3,63.6,29.99,SW,224,6.0,6.0,88,0.00,,,0.03,Wunderground v.1.15,2013-06-16 06:15:00,
2013-06-16 01:20:00,67.3,63.6,29.99,SW,226,6.0,6.0,88,0.00,,,0.03,Wunderground v.1.15,2013-06-16 06:20:00,
2013-06-16 01:25:00,67.3,63.6,29.99,SW,232,7.0,8.0,88,0.00,,,0.03,Wunderground v.1.15,2013-06-16 06:25:00,
2013-06-16 01:35:00,67.2,63.5,29.98,SW,227,7.0,8.0,88,0.00,,,0.03,Wunderground v.1.15,2013-06-16 06:35:00,
2013-06-16 01:45:00,67.1,63.4,29.97,SW,220,8.0,8.0,88,0.00,,,0.03,Wunderground v.1.15,2013-06-16 06:45:00,
2013-06-16 01:50:00,67.2,63.5,29.97,SW,216,7.0,7.0,88,0.00,,,0.03,Wunderground v.1.15,2013-06-16 06:50:00,
2013-06-16 02:00:00,67.0,63.3,29.95,SW,216,6.0,7.0,88,0.00,,,0.03,Wunderground v.1.15,2013-06-16 07:00:00,
2013-06-16 02:05:00,67.0,63.6,29.94,SW,215,5.0,7.0,89,0.00,,,0.03,Wunderground v.1.15,2013-06-16 07:05:00,
2013-06-16 02:15:00,66.9,63.6,29.94,SW,215,2.0,5.0,89,0.00,,,0.03,Wunderground v.1.15,2013-06-16 07:15:00,
2013-06-16 02:20:00,66.9,63.6,29.94,SW,214,2.0,7.0,89,0.00,,,0.03,Wunderground v.1.15,2013-06-16 07:20:00,
2013-06-16 02:30:00,66.8,63.5,29.94,SSW,207,6.0,6.0,89,0.00,,,0.03,Wunderground v.1.15,2013-06-16 07:30:00,
2013-06-16 02:40:00,66.8,63.5,29.95,SSW,207,6.0,8.0,89,0.00,,,0.03,Wunderground v.1.15,2013-06-16 07:40:00,
2013-06-16 02:45:00,66.8,63.5,29.94,SSW,192,5.0,8.0,89,0.00,,,0.03,Wunderground v.1.15,2013-06-16 07:45:00,
2013-06-16 02:55:00,66.8,63.5,29.93,SSW,194,4.0,6.0,89,0.00,,,0.03,Wunderground v.1.15,2013-06-16 07:55:00,
2013-06-16 03:00:00,66.8,63.5,29.95,SSW,213,4.0,4.0,89,0.00,,,0.03,Wunderground v.1.15,2013-06-16 08:00:00,
2013-06-16 03:10:00,66.7,63.0,29.96,West,259,4.0,4.0,88,0.00,,,0.03,Wunderground v.1.15,2013-06-16 08:10:00,
2013-06-16 03:20:00,66.7,63.4,29.96,WSW,254,4.0,4.0,89,0.00,,,0.04,Wunderground v.1.15,2013-06-16 08:20:00,
2013-06-16 03:25:00,66.7,63.4,29.95,WSW,244,4.0,4.0,89,0.00,,,0.04,Wunderground v.1.15,2013-06-16 08:25:00,
2013-06-16 03:30:00,66.7,63.4,29.95,WSW,244,4.0,4.0,89,0.04,,,0.05,Wunderground v.1.15,2013-06-16 08:30:00,
2013-06-16 03:40:00,66.7,63.4,29.96,SW,232,4.0,4.0,89,0.06,,,0.06,Wunderground v.1.15,2013-06-16 08:40:00,
2013-06-16 03:50:00,66.7,63.4,29.95,SW,223,5.0,5.0,89,0.04,,,0.06,Wunderground v.1.15,2013-06-16 08:50:00,
2013-06-16 04:00:00,66.6,63.3,29.95,SW,221,4.0,5.0,89,0.00,,,0.06,Wunderground v.1.15,2013-06-16 09:00:00,
2013-06-16 04:05:00,66.5,63.2,29.95,SW,219,5.0,6.0,89,0.00,,,0.06,Wunderground v.1.15,2013-06-16 09:05:00,
2013-06-16 04:15:00,66.5,63.5,29.95,SW,217,4.0,5.0,90,0.00,,,0.06,Wunderground v.1.15,2013-06-16 09:15:00,
2013-06-16 04:20:00,66.5,63.5,29.94,SW,217,4.0,4.0,90,0.00,,,0.06,Wunderground v.1.15,2013-06-16 09:20:00,
2013-06-16 04:30:00,66.4,63.4,29.95,SW,217,3.0,5.0,90,0.00,,,0.06,Wunderground v.1.15,2013-06-16 09:30:00,
2013-06-16 04:40:00,66.5,63.5,29.96,SW,219,6.0,6.0,90,0.00,,,0.06,Wunderground v.1.15,2013-06-16 09:40:00,
2013-06-16 04:45:00,66.5,63.5,29.96,SW,219,6.0,6.0,90,0.00,,,0.06,Wunderground v.1.15,2013-06-16 09:45:00,
2013-06-16 04:55:00,66.4,63.4,29.96,SW,219,4.0,5.0,90,0.00,,,0.06,Wunderground v.1.15,2013-06-16 09:55:00,
2013-06-16 05:00:00,66.4,63.4,29.96,SW,219,2.0,2.0,90,0.00,,,0.06,Wunderground v.1.15,2013-06-16 10:00:00,
2013-06-16 05:10:00,66.4,63.4,29.97,SW,219,1.0,5.0,90,0.00,,,0.06,Wunderground v.1.15,2013-06-16 10:10:00,
2013-06-16 05:15:00,66.4,63.4,29.98,SW,219,5.0,11.0,90,0.00,,,0.06,Wunderground v.1.15,2013-06-16 10:15:00,
2013-06-16 05:25:00,66.4,63.4,29.98,SW,220,8.0,8.0,90,0.00,,,0.06,Wunderground v.1.15,2013-06-16 10:25:00,
2013-06-16 05:35:00,66.5,63.2,29.98,SW,223,7.0,7.0,89,0.00,,,0.06,Wunderground v.1.15,2013-06-16 10:35:00,
2013-06-16 05:45:00,66.5,62.8,29.98,SW,235,8.0,10.0,88,0.00,,,0.06,Wunderground v.1.15,2013-06-16 10:45:00,
2013-06-16 05:50:00,66.6,62.9,29.98,WSW,240,8.0,8.0,88,0.00,,,0.07,Wunderground v.1.15,2013-06-16 10:50:00,
2013-06-16 06:00:00,66.5,62.8,29.98,SW,232,6.0,9.0,88,0.00,,,0.07,Wunderground v.1.15,2013-06-16 11:00:00,
2013-06-16 06:05:00,66.6,62.9,29.98,WSW,243,7.0,9.0,88,0.00,,,0.07,Wunderground v.1.15,2013-06-16 11:05:00,
2013-06-16 06:15:00,66.6,62.9,29.99,SW,236,8.0,8.0,88,0.00,,,0.07,Wunderground v.1.15,2013-06-16 11:15:00,
2013-06-16 06:20:00,66.7,63.0,29.99,SW,231,8.0,9.0,88,0.00,,,0.07,Wunderground v.1.15,2013-06-16 11:20:00,
2013-06-16 06:30:00,66.9,63.2,29.99,SW,235,8.0,8.0,88,0.00,,,0.07,Wunderground v.1.15,2013-06-16 11:30:00,
2013-06-16 06:40:00,67.0,63.3,30.00,WSW,246,8.0,8.0,88,0.00,,,0.07,Wunderground v.1.15,2013-06-16 11:40:00,
2013-06-16 06:45:00,67.1,63.4,30.00,WSW,246,7.0,8.0,88,0.00,,,0.07,Wunderground v.1.15,2013-06-16 11:45:00,
2013-06-16 06:55:00,67.2,63.5,30.00,WSW,240,6.0,6.0,88,0.00,,,0.07,Wunderground v.1.15,2013-06-16 11:55:00,
2013-06-16 07:00:00,67.3,63.6,30.00,WSW,239,5.0,5.0,88,0.00,,,0.07,Wunderground v.1.15,2013-06-16 12:00:00,
2013-06-16 07:10:00,67.3,63.6,30.00,SW,231,5.0,6.0,88,0.00,,,0.07,Wunderground v.1.15,2013-06-16 12:10:00,
2013-06-16 07:15:00,67.4,63.7,30.00,SW,229,5.0,6.0,88,0.00,,,0.07,Wunderground v.1.15,2013-06-16 12:15:00,
2013-06-16 07:25:00,67.4,63.7,30.00,SW,224,5.0,8.0,88,0.00,,,0.07,Wunderground v.1.15,2013-06-16 12:25:00,
2013-06-16 07:30:00,67.4,63.7,30.00,SW,225,6.0,6.0,88,0.00,,,0.07,Wunderground v.1.15,2013-06-16 12:30:00,
2013-06-16 07:40:00,67.5,63.8,30.00,SW,225,7.0,8.0,88,0.00,,,0.07,Wunderground v.1.15,2013-06-16 12:40:00,
2013-06-16 07:50:00,67.7,64.0,30.01,SW,223,7.0,7.0,88,0.00,,,0.07,Wunderground v.1.15,2013-06-16 12:50:00,
2013-06-16 07:55:00,67.8,64.1,30.01,SW,226,7.0,7.0,88,0.00,,,0.07,Wunderground v.1.15,2013-06-16 12:55:00,
2013-06-16 08:00:00,67.8,64.1,30.01,SW,227,7.0,8.0,88,0.00,,,0.07,Wunderground v.1.15,2013-06-16 13:00:00,
2013-06-16 08:10:00,67.9,63.9,30.01,SW,230,9.0,10.0,87,0.00,,,0.07,Wunderground v.1.15,2013-06-16 13:10:00,
2013-06-16 08:20:00,67.9,63.9,30.01,SW,219,9.0,11.0,87,0.00,,,0.07,Wunderground v.1.15,2013-06-16 13:20:00,
2013-06-16 08:25:00,68.0,64.3,30.01,SW,231,9.0,11.0,88,0.00,,,0.07,Wunderground v.1.15,2013-06-16 13:25:00,
2013-06-16 08:35:00,68.5,64.8,30.01,SW,232,9.0,9.0,88,0.00,,,0.07,Wunderground v.1.15,2013-06-16 13:35:00,
2013-06-16 08:40:00,68.7,65.0,30.01,SW,229,8.0,8.0,88,0.00,,,0.07,Wunderground v.1.15,2013-06-16 13:40:00,
2013-06-16 08:50:00,69.2,65.2,30.01,SW,236,8.0,8.0,87,0.00,,,0.07,Wunderground v.1.15,2013-06-16 13:50:00,
2013-06-16 09:00:00,69.6,65.2,30.01,SW,234,8.0,8.0,86,0.00,,,0.07,Wunderground v.1.15,2013-06-16 14:00:00,
2013-06-16 09:05:00,70.0,66.0,30.00,SW,231,8.0,10.0,87,0.00,,,0.07,Wunderground v.1.15,2013-06-16 14:05:00,
2013-06-16 09:15:00,71.9,66.8,30.00,SW,227,10.0,14.0,84,0.00,,,0.07,Wunderground v.1.15,2013-06-16 14:15:00,
2013-06-16 09:20:00,72.3,66.5,30.00,SW,225,12.0,17.0,82,0.00,,,0.07,Wunderground v.1.15,2013-06-16 14:20:00,
2013-06-16 09:30:00,72.6,66.4,30.00,SW,225,12.0,12.0,81,0.00,,,0.07,Wunderground v.1.15,2013-06-16 14:30:00,
2013-06-16 09:35:00,72.9,66.4,30.00,SW,232,12.0,12.0,80,0.00,,,0.07,Wunderground v.1.15,2013-06-16 14:35:00,
2013-06-16 09:45:00,73.1,66.6,30.00,SW,217,12.0,13.0,80,0.00,,,0.07,Wunderground v.1.15,2013-06-16 14:45:00,
2013-06-16 09:55:00,73.1,66.9,30.00,SW,235,12.0,13.0,81,0.00,,,0.07,Wunderground v.1.15,2013-06-16 14:55:00,
2013-06-16 10:00:00,73.3,67.1,30.00,WSW,242,11.0,11.0,81,0.00,,,0.07,Wunderground v.1.15,2013-06-16 15:00:00,
2013-06-16 10:05:00,73.6,67.0,30.00,SW,228,11.0,14.0,80,0.00,,,0.07,Wunderground v.1.15,2013-06-16 15:05:00,
2013-06-16 10:15:00,73.9,67.3,30.00,SW,236,11.0,12.0,80,0.00,,,0.07,Wunderground v.1.15,2013-06-16 15:15:00,
2013-06-16 10:25:00,74.0,67.1,30.00,SW,230,10.0,11.0,79,0.00,,,0.07,Wunderground v.1.15,2013-06-16 15:25:00,
2013-06-16 10:30:00,74.4,67.5,30.00,WSW,240,11.0,12.0,79,0.00,,,0.07,Wunderground v.1.15,2013-06-16 15:30:00,
2013-06-16 10:40:00,75.3,68.3,30.00,WSW,242,9.0,11.0,79,0.00,,,0.07,Wunderground v.1.15,2013-06-16 15:40:00,
2013-06-16 10:45:00,75.9,68.2,30.00,West,264,9.0,11.0,77,0.00,,,0.07,Wunderground v.1.15,2013-06-16 15:45:00,
2013-06-16 10:55:00,76.6,68.1,30.00,SW,232,10.0,11.0,75,0.00,,,0.07,Wunderground v.1.15,2013-06-16 15:55:00,
2013-06-16 11:00:00,76.9,68.0,30.00,WSW,251,10.0,12.0,74,0.00,,,0.07,Wunderground v.1.15,2013-06-16 16:00:00,
2013-06-16 11:10:00,77.1,68.2,30.00,WSW,239,12.0,12.0,74,0.00,,,0.07,Wunderground v.1.15,2013-06-16 16:10:00,
2013-06-16 11:20:00,77.1,67.8,30.00,SW,231,14.0,14.0,73,0.00,,,0.07,Wunderground v.1.15,2013-06-16 16:20:00,
2013-06-16 11:25:00,76.8,67.9,30.00,SW,231,12.0,14.0,74,0.00,,,0.07,Wunderground v.1.15,2013-06-16 16:25:00,
2013-06-16 11:30:00,76.9,68.4,30.00,WSW,244,10.0,12.0,75,0.00,,,0.07,Wunderground v.1.15,2013-06-16 16:30:00,
2013-06-16 11:40:00,77.1,68.6,30.00,SW,227,13.0,13.0,75,0.00,,,0.07,Wunderground v.1.15,2013-06-16 16:40:00,
2013-06-16 11:45:00,77.1,68.6,30.00,WSW,248,12.0,13.0,75,0.00,,,0.07,Wunderground v.1.15,2013-06-16 16:45:00,
2013-06-16 11:55:00,75.8,66.5,30.01,WSW,239,14.0,18.0,73,0.00,,,0.07,Wunderground v.1.15,2013-06-16 16:55:00,
2013-06-16 12:00:00,74.6,66.5,30.01,SW,223,15.0,15.0,76,0.00,,,0.07,Wunderground v.1.15,2013-06-16 17:00:00,
2013-06-16 12:10:00,73.2,66.7,30.01,SW,222,11.0,11.0,80,0.00,,,0.07,Wunderground v.1.15,2013-06-16 17:10:00,
2013-06-16 12:15:00,72.8,66.6,30.00,SW,225,10.0,11.0,81,0.00,,,0.07,Wunderground v.1.15,2013-06-16 17:15:00,
2013-06-16 12:25:00,73.1,67.3,30.00,SSW,211,11.0,12.0,82,0.00,,,0.07,Wunderground v.1.15,2013-06-16 17:25:00,
2013-06-16 12:30:00,73.5,67.7,30.00,SW,232,12.0,12.0,82,0.00,,,0.07,Wunderground v.1.15,2013-06-16 17:30:00,
2013-06-16 12:35:00,74.0,68.2,30.00,SW,227,11.0,12.0,82,0.00,,,0.07,Wunderground v.1.15,2013-06-16 17:35:00,
2013-06-16 12:45:00,74.6,67.7,29.99,SW,231,15.0,17.0,79,0.00,,,0.07,Wunderground v.1.15,2013-06-16 17:45:00,
2013-06-16 12:55:00,75.1,67.4,29.99,SSW,211,15.0,16.0,77,0.00,,,0.07,Wunderground v.1.15,2013-06-16 17:55:00,
2013-06-16 13:00:00,75.2,67.9,29.99,SSW,213,15.0,15.0,78,0.00,,,0.07,Wunderground v.1.15,2013-06-16 18:00:00,
2013-06-16 13:10:00,76.4,68.7,29.99,SW,222,15.0,15.0,77,0.00,,,0.07,Wunderground v.1.15,2013-06-16 18:10:00,
2013-06-16 13:15:00,76.6,68.5,29.99,SW,216,15.0,18.0,76,0.00,,,0.07,Wunderground v.1.15,2013-06-16 18:15:00,
2013-06-16 13:20:00,76.2,68.8,29.99,SW,224,13.0,13.0,78,0.00,,,0.07,Wunderground v.1.15,2013-06-16 18:20:00,
2013-06-16 13:30:00,76.1,69.8,29.99,SW,217,11.0,15.0,81,0.00,,,0.07,Wunderground v.1.15,2013-06-16 18:30:00,
2013-06-16 13:35:00,77.0,69.6,29.99,SSW,208,12.0,15.0,78,0.00,,,0.07,Wunderground v.1.15,2013-06-16 18:35:00,
2013-06-16 13:45:00,78.1,68.3,29.99,SSW,209,14.0,16.0,72,0.00,,,0.07,Wunderground v.1.15,2013-06-16 18:45:00,
2013-06-16 13:55:00,78.2,68.0,29.99,SSW,195,13.0,13.0,71,0.00,,,0.07,Wunderground v.1.15,2013-06-16 18:55:00,
2013-06-16 14:00:00,78.0,67.8,29.99,SW,215,13.0,13.0,71,0.00,,,0.07,Wunderground v.1.15,2013-06-16 19:00:00,
2013-06-16 14:05:00,77.8,67.6,29.99,SSW,213,13.0,13.0,71,0.00,,,0.07,Wunderground v.1.15,2013-06-16 19:05:00,
2013-06-16 14:15:00,77.5,68.6,29.99,SW,228,13.0,16.0,74,0.00,,,0.07,Wunderground v.1.15,2013-06-16 19:15:00,
2013-06-16 14:20:00,77.3,67.6,29.99,SSW,213,12.0,12.0,72,0.00,,,0.07,Wunderground v.1.15,2013-06-16 19:20:00,
2013-06-16 14:30:00,77.5,68.6,29.99,SW,215,11.0,15.0,74,0.00,,,0.07,Wunderground v.1.15,2013-06-16 19:30:00,
2013-06-16 14:35:00,77.6,67.9,29.99,SW,223,12.0,15.0,72,0.00,,,0.07,Wunderground v.1.15,2013-06-16 19:35:00,
2013-06-16 14:45:00,77.6,68.3,29.98,SW,227,10.0,12.0,73,0.00,,,0.07,Wunderground v.1.15,2013-06-16 19:45:00,
2013-06-16 14:50:00,77.7,68.4,29.98,SW,227,11.0,13.0,73,0.00,,,0.07,Wunderground v.1.15,2013-06-16 19:50:00,
2013-06-16 15:00:00,78.2,68.0,29.98,SW,227,12.0,12.0,71,0.00,,,0.07,Wunderground v.1.15,2013-06-16 20:00:00,
2013-06-16 15:10:00,78.8,69.0,29.97,SSW,209,11.0,11.0,72,0.00,,,0.07,Wunderground v.1.15,2013-06-16 20:10:00,
2013-06-16 15:15:00,79.0,68.8,29.98,SSW,205,10.0,11.0,71,0.00,,,0.07,Wunderground v.1.15,2013-06-16 20:15:00,
2013-06-16 15:20:00,79.1,69.7,29.97,SW,217,10.0,10.0,73,0.00,,,0.07,Wunderground v.1.15,2013-06-16 20:20:00,
2013-06-16 15:30:00,80.0,68.9,29.97,SW,229,10.0,11.0,69,0.00,,,0.07,Wunderground v.1.15,2013-06-16 20:30:00,
2013-06-16 15:35:00,80.3,68.8,29.96,SW,217,11.0,11.0,68,0.00,,,0.07,Wunderground v.1.15,2013-06-16 20:35:00,
2013-06-16 15:45:00,80.7,70.4,29.96,SW,235,11.0,11.0,71,0.00,,,0.07,Wunderground v.1.15,2013-06-16 20:45:00,
2013-06-16 15:50:00,81.1,70.8,29.96,SW,224,10.0,12.0,71,0.00,,,0.07,Wunderground v.1.15,2013-06-16 20:50:00,
2013-06-16 16:00:00,80.9,68.9,29.95,SW,225,10.0,11.0,67,0.00,,,0.07,Wunderground v.1.15,2013-06-16 21:00:00,
2013-06-16 16:05:00,80.7,68.7,29.95,SW,216,10.0,11.0,67,0.00,,,0.07,Wunderground v.1.15,2013-06-16 21:05:00,
2013-06-16 16:15:00,80.5,69.4,29.95,SSW,210,10.0,10.0,69,0.00,,,0.07,Wunderground v.1.15,2013-06-16 21:15:00,
2013-06-16 16:20:00,80.6,69.5,29.95,SW,223,10.0,12.0,69,0.00,,,0.07,Wunderground v.1.15,2013-06-16 21:20:00,
2013-06-16 16:30:00,80.5,69.0,29.95,WSW,240,11.0,12.0,68,0.00,,,0.07,Wunderground v.1.15,2013-06-16 21:30:00,
2013-06-16 16:35:00,80.6,69.9,29.95,SW,218,11.0,12.0,70,0.00,,,0.07,Wunderground v.1.15,2013-06-16 21:35:00,
2013-06-16 16:45:00,81.0,69.9,29.95,WSW,250,10.0,12.0,69,0.00,,,0.07,Wunderground v.1.15,2013-06-16 21:45:00,
2013-06-16 16:50:00,81.2,70.1,29.95,SW,225,10.0,10.0,69,0.00,,,0.07,Wunderground v.1.15,2013-06-16 21:50:00,
2013-06-16 17:00:00,80.6,69.1,29.95,WSW,239,9.0,9.0,68,0.00,,,0.07,Wunderground v.1.15,2013-06-16 22:00:00,
2013-06-16 17:05:00,80.4,69.3,29.95,SW,228,9.0,9.0,69,0.00,,,0.07,Wunderground v.1.15,2013-06-16 22:05:00,
2013-06-16 17:15:00,80.8,70.1,29.94,SW,220,9.0,10.0,70,0.00,,,0.07,Wunderground v.1.15,2013-06-16 22:15:00,
2013-06-16 17:20:00,80.9,69.8,29.95,SW,228,9.0,9.0,69,0.00,,,0.07,Wunderground v.1.15,2013-06-16 22:20:00,
2013-06-16 17:30:00,80.9,69.8,29.94,WSW,238,9.0,9.0,69,0.00,,,0.07,Wunderground v.1.15,2013-06-16 22:30:00,
2013-06-16 17:35:00,81.0,69.9,29.94,SW,227,9.0,9.0,69,0.00,,,0.07,Wunderground v.1.15,2013-06-16 22:35:00,
2013-06-16 17:45:00,80.9,69.3,29.94,SW,234,9.0,12.0,68,0.00,,,0.07,Wunderground v.1.15,2013-06-16 22:45:00,
2013-06-16 17:50:00,80.7,68.7,29.94,WSW,237,8.0,8.0,67,0.00,,,0.07,Wunderground v.1.15,2013-06-16 22:50:00,
2013-06-16 18:00:00,79.9,69.2,29.94,SW,234,8.0,8.0,70,0.00,,,0.07,Wunderground v.1.15,2013-06-16 23:00:00,
2013-06-16 18:05:00,79.9,68.8,29.94,SSW,213,8.0,8.0,69,0.00,,,0.07,Wunderground v.1.15,2013-06-16 23:05:00,
2013-06-16 18:15:00,80.1,69.0,29.94,SW,223,10.0,10.0,69,0.00,,,0.07,Wunderground v.1.15,2013-06-16 23:15:00,
2013-06-16 18:20:00,80.0,69.3,29.94,SW,230,9.0,9.0,70,0.00,,,0.07,Wunderground v.1.15,2013-06-16 23:20:00,
2013-06-16 18:25:00,79.9,69.2,29.94,SW,221,9.0,9.0,70,0.00,,,0.07,Wunderground v.1.15,2013-06-16 23:25:00,
2013-06-16 18:35:00,79.9,69.2,29.94,SW,228,9.0,9.0,70,0.00,,,0.07,Wunderground v.1.15,2013-06-16 23:35:00,
2013-06-16 18:40:00,79.8,69.1,29.94,SW,235,8.0,10.0,70,0.00,,,0.07,Wunderground v.1.15,2013-06-16 23:40:00,
2013-06-16 18:50:00,79.3,68.7,29.94,SW,227,7.0,7.0,70,0.00,,,0.07,Wunderground v.1.15,2013-06-16 23:50:00,
2013-06-16 18:55:00,79.1,68.9,29.94,SW,229,7.0,9.0,71,0.00,,,0.07,Wunderground v.1.15,2013-06-16 23:55:00,
2013-06-16 19:05:00,78.7,69.3,29.94,SW,221,7.0,10.0,73,0.00,,,0.07,Wunderground v.1.15,2013-06-17 00:05:00,
2013-06-16 19:10:00,78.6,69.2,29.94,SW,222,8.0,10.0,73,0.00,,,0.07,Wunderground v.1.15,2013-06-17 00:10:00,
2013-06-16 19:20:00,78.7,69.3,29.94,SW,221,9.0,9.0,73,0.00,,,0.07,Wunderground v.1.15,2013-06-17 00:20:00,
2013-06-16 19:25:00,78.7,69.3,29.94,SW,223,7.0,9.0,73,0.00,,,0.07,Wunderground v.1.15,2013-06-17 00:25:00,
2013-06-16 19:35:00,78.5,69.5,29.94,SW,221,6.0,7.0,74,0.00,,,0.07,Wunderground v.1.15,2013-06-17 00:35:00,
2013-06-16 19:40:00,78.4,69.8,29.94,SSW,212,5.0,6.0,75,0.00,,,0.07,Wunderground v.1.15,2013-06-17 00:40:00,
2013-06-16 19:50:00,78.2,69.6,29.94,SW,216,6.0,6.0,75,0.00,,,0.07,Wunderground v.1.15,2013-06-17 00:50:00,
2013-06-16 19:55:00,78.0,69.8,29.94,SW,214,6.0,7.0,76,0.00,,,0.07,Wunderground v.1.15,2013-06-17 00:55:00,
2013-06-16 20:05:00,77.5,69.7,29.94,SSW,213,6.0,6.0,77,0.00,,,0.07,Wunderground v.1.15,2013-06-17 01:05:00,
2013-06-16 20:10:00,77.2,69.4,29.93,SSW,211,5.0,5.0,77,0.00,,,0.07,Wunderground v.1.15,2013-06-17 01:10:00,
2013-06-16 20:20:00,76.7,69.3,29.94,SSW,209,5.0,5.0,78,0.00,,,0.07,Wunderground v.1.15,2013-06-17 01:20:00,
2013-06-16 20:25:00,76.4,69.4,29.94,SSW,209,5.0,5.0,79,0.00,,,0.07,Wunderground v.1.15,2013-06-17 01:25:00,
2013-06-16 20:35:00,75.7,69.1,29.94,SSW,209,4.0,5.0,80,0.00,,,0.07,Wunderground v.1.15,2013-06-17 01:35:00,
2013-06-16 20:40:00,75.4,68.8,29.94,SSW,209,4.0,5.0,80,0.00,,,0.07,Wunderground v.1.15,2013-06-17 01:40:00,
2013-06-16 20:50:00,74.8,68.6,29.94,SSW,209,4.0,4.0,81,0.00,,,0.07,Wunderground v.1.15,2013-06-17 01:50:00,
2013-06-16 20:55:00,74.6,68.7,29.95,SSW,209,4.0,4.0,82,0.00,,,0.07,Wunderground v.1.15,2013-06-17 01:55:00,
2013-06-16 21:05:00,74.1,68.6,29.94,SSW,209,5.0,6.0,83,0.00,,,0.07,Wunderground v.1.15,2013-06-17 02:05:00,
2013-06-16 21:10:00,73.9,68.4,29.95,SSW,209,5.0,5.0,83,0.00,,,0.07,Wunderground v.1.15,2013-06-17 02:10:00,
2013-06-16 21:20:00,73.5,68.4,29.95,SSW,209,4.0,4.0,84,0.00,,,0.07,Wunderground v.1.15,2013-06-17 02:20:00,
2013-06-16 21:25:00,73.4,68.3,29.95,SSW,209,3.0,4.0,84,0.00,,,0.07,Wunderground v.1.15,2013-06-17 02:25:00,
2013-06-16 21:35:00,73.1,68.0,29.95,SSW,209,1.0,3.0,84,0.00,,,0.07,Wunderground v.1.15,2013-06-17 02:35:00,
2013-06-16 21:40:00,73.0,67.9,29.95,SSW,209,0.0,0.0,84,0.00,,,0.07,Wunderground v.1.15,2013-06-17 02:40:00,
2013-06-16 21:50:00,72.7,67.9,29.95,SSW,209,0.0,0.0,85,0.00,,,0.07,Wunderground v.1.15,2013-06-17 02:50:00,
2013-06-16 21:55:00,72.6,67.8,29.95,SSW,209,0.0,0.0,85,0.00,,,0.07,Wunderground v.1.15,2013-06-17 02:55:00,
2013-06-16 22:05:00,72.5,67.7,29.96,SSW,209,0.0,0.0,85,0.00,,,0.07,Wunderground v.1.15,2013-06-17 03:05:00,
2013-06-16 22:10:00,72.4,68.0,29.96,SSW,209,0.0,0.0,86,0.00,,,0.07,Wunderground v.1.15,2013-06-17 03:10:00,
2013-06-16 22:20:00,72.2,67.8,29.96,SSW,209,0.0,0.0,86,0.00,,,0.07,Wunderground v.1.15,2013-06-17 03:20:00,
2013-06-16 22:25:00,72.1,67.7,29.96,SSW,209,0.0,0.0,86,0.00,,,0.07,Wunderground v.1.15,2013-06-17 03:25:00,
2013-06-16 22:35:00,72.0,67.6,29.96,SSW,209,0.0,0.0,86,0.00,,,0.07,Wunderground v.1.15,2013-06-17 03:35:00,
2013-06-16 22:40:00,72.0,67.6,29.97,SSW,209,0.0,0.0,86,0.00,,,0.07,Wunderground v.1.15,2013-06-17 03:40:00,
2013-06-16 22:45:00,71.9,67.5,29.97,SSW,209,1.0,1.0,86,0.00,,,0.07,Wunderground v.1.15,2013-06-17 03:45:00,
2013-06-16 22:55:00,71.5,67.1,29.96,SSW,209,1.0,2.0,86,0.00,,,0.07,Wunderground v.1.15,2013-06-17 03:55:00,
2013-06-16 23:05:00,71.2,66.8,29.97,SSW,209,0.0,0.0,86,0.00,,,0.07,Wunderground v.1.15,2013-06-17 04:05:00,
2013-06-16 23:10:00,71.0,66.9,29.97,SSW,209,0.0,0.0,87,0.00,,,0.07,Wunderground v.1.15,2013-06-17 04:10:00,
2013-06-16 23:20:00,70.7,66.6,29.98,SSW,209,0.0,0.0,87,0.00,,,0.07,Wunderground v.1.15,2013-06-17 04:20:00,
2013-06-16 23:25:00,70.6,66.5,29.97,SSW,209,0.0,0.0,87,0.00,,,0.07,Wunderground v.1.15,2013-06-17 04:25:00,
2013-06-16 23:35:00,70.4,66.7,29.97,SSW,209,0.0,0.0,88,0.00,,,0.07,Wunderground v.1.15,2013-06-17 04:35:00,
2013-06-16 23:40:00,70.3,66.6,29.97,SSW,209,0.0,0.0,88,0.00,,,0.07,Wunderground v.1.15,2013-06-17 04:40:00,
2013-06-16 23:45:00,70.2,66.5,29.97,SSW,209,0.0,0.0,88,0.00,,,0.07,Wunderground v.1.15,2013-06-17 04:45:00,
2013-06-16 23:50:00,70.1,66.4,29.97,SSW,209,0.0,0.0,88,0.00,,,0.07,Wunderground v.1.15,2013-06-17 04:50:00,
2013-06-16 23:55:00,70.1,66.4,29.97,SSW,209,0.0,1.0,88,0.00,,,0.07,Wunderground v.1.15,2013-06-17 04:55:00,